| time (UTC) | temp C | wind direction | speed KPH | gust KPH | rain 1hr cm | rain 24hr cm | rain mn cm | humidity % | barometer mb |
| 20260505214314 | 10 | 21 | 1.6 | 6.4 | 0.00 | 0.00 | 0.00 | 79 | 1013.7 |
| 20260505212814 | 10 | 5 | 0.0 | 4.8 | 0.00 | 0.00 | 0.00 | 80 | 1013.8 |
| 20260505211314 | 10 | 35 | 0.0 | 1.6 | 0.00 | 0.00 | 0.00 | 79 | 1013.8 |
| 20260505205814 | 10 | 330 | 0.0 | 3.2 | 0.00 | 0.00 | 0.00 | 78 | 1013.8 |
| 20260505204314 | 10 | 355 | 0.0 | 1.6 | 0.00 | 0.00 | 0.00 | 78 | 1013.9 |
| 20260505202814 | 10 | 298 | 0.0 | 1.6 | 0.00 | 0.00 | 0.00 | 78 | 1013.8 |
| 20260505201314 | 10 | 9 | 1.6 | 3.2 | 0.00 | 0.00 | 0.00 | 76 | 1013.8 |
| 20260505195814 | 11 | 14 | 1.6 | 6.4 | 0.00 | 0.00 | 0.00 | 75 | 1013.6 |
| 20260505194314 | 11 | 313 | 1.6 | 6.4 | 0.00 | 0.00 | 0.00 | 73 | 1013.5 |
| 20260505192814 | 11 | 27 | 1.6 | 8.0 | 0.00 | 0.00 | 0.00 | 71 | 1013.3 |
| 20260505191314 | 12 | 50 | 3.2 | 8.0 | 0.00 | 0.00 | 0.00 | 70 | 1013.1 |
| 20260505185814 | 12 | 342 | 3.2 | 6.4 | 0.00 | 0.00 | 0.00 | 69 | 1012.9 |
| 20260505184314 | 12 | 340 | 3.2 | 11.3 | 0.00 | 0.00 | 0.00 | 69 | 1013.0 |
| 20260505182815 | 12 | 63 | 1.6 | 6.4 | 0.00 | 0.00 | 0.00 | 69 | 1012.9 |
| 20260505181315 | 13 | 280 | 3.2 | 11.3 | 0.00 | 0.00 | 0.00 | 66 | 1013.0 |
| 20260505175815 | 13 | 319 | 3.2 | 6.4 | 0.00 | 0.00 | 0.00 | 66 | 1012.9 |
| 20260505174315 | 13 | 349 | 3.2 | 8.0 | 0.00 | 0.00 | 0.00 | 65 | 1013.1 |
| 20260505172815 | 13 | 23 | 3.2 | 8.0 | 0.00 | 0.00 | 0.00 | 65 | 1013.0 |
| 20260505171315 | 13 | 0 | 3.2 | 11.3 | 0.00 | 0.00 | 0.00 | 64 | 1012.9 |
| 20260505165815 | 14 | 12 | 4.8 | 12.9 | 0.00 | 0.00 | 0.00 | 63 | 1013.2 |
| 20260505164315 | 15 | 44 | 4.8 | 19.3 | 0.00 | 0.00 | 0.00 | 61 | 1013.3 |
| 20260505162815 | 15 | 26 | 6.4 | 19.3 | 0.00 | 0.00 | 0.00 | 62 | 1013.1 |
| 20260505161315 | 16 | 11 | 4.8 | 20.9 | 0.00 | 0.00 | 0.00 | 60 | 1013.1 |
| 20260505152815 | 15 | 0 | 6.4 | 14.5 | 0.00 | 0.00 | 0.00 | 59 | 1013.2 |
| 20260505151315 | 15 | 18 | 4.8 | 8.0 | 0.00 | 0.00 | 0.00 | 61 | 1013.3 |
| 20260505124315 | 15 | 59 | 3.2 | 12.9 | 0.00 | 0.00 | 0.00 | 59 | 1013.5 |
| 20260505122815 | 15 | 293 | 4.8 | 12.9 | 0.00 | 0.00 | 0.00 | 60 | 1013.6 |
| 20260505121315 | 15 | 15 | 3.2 | 12.9 | 0.00 | 0.00 | 0.00 | 60 | 1013.6 |
| 20260505115815 | 15 | 33 | 4.8 | 19.3 | 0.00 | 0.00 | 0.00 | 59 | 1013.7 |
| 20260505114315 | 15 | 24 | 3.2 | 14.5 | 0.00 | 0.00 | 0.00 | 62 | 1013.6 |
| 20260505112815 | 15 | 12 | 4.8 | 9.7 | 0.00 | 0.00 | 0.00 | 64 | 1013.6 |
| 20260505111315 | 15 | 11 | 6.4 | 16.1 | 0.00 | 0.00 | 0.00 | 63 | 1013.9 |
| 20260505101315 | 14 | 319 | 3.2 | 14.5 | 0.00 | 0.00 | 0.00 | 69 | 1014.2 |
| 20260505095815 | 13 | 340 | 6.4 | 17.7 | 0.00 | 0.00 | 0.00 | 70 | 1014.3 |
| 20260505094315 | 13 | 83 | 6.4 | 16.1 | 0.00 | 0.00 | 0.00 | 69 | 1014.2 |
| 20260505092815 | 12 | 41 | 8.0 | 24.1 | 0.00 | 0.00 | 0.00 | 70 | 1014.1 |
| 20260505091315 | 12 | 15 | 6.4 | 14.5 | 0.00 | 0.00 | 0.00 | 73 | 1014.2 |
| 20260505085815 | 11 | 30 | 3.2 | 11.3 | 0.00 | 0.00 | 0.00 | 77 | 1014.4 |
| 20260505084315 | 11 | 138 | 3.2 | 12.9 | 0.00 | 0.00 | 0.00 | 77 | 1014.7 |
| 20260505082815 | 10 | 5 | 4.8 | 8.0 | 0.00 | 0.00 | 0.00 | 82 | 1014.6 |
| 20260505081315 | 10 | 17 | 3.2 | 8.0 | 0.00 | 0.00 | 0.00 | 83 | 1014.6 |
| 20260505075815 | 9 | 33 | 4.8 | 16.1 | 0.00 | 0.00 | 0.00 | 84 | 1014.6 |
| 20260505074315 | 9 | 5 | 3.2 | 9.7 | 0.00 | 0.00 | 0.00 | 87 | 1014.5 |
| 20260505072815 | 8 | 43 | 3.2 | 8.0 | 0.00 | 0.03 | 0.00 | 88 | 1014.6 |
| 20260505071315 | 8 | 32 | 4.8 | 14.5 | 0.00 | 0.03 | 0.00 | 89 | 1014.6 |
| 20260505065815 | 8 | 22 | 4.8 | 19.3 | 0.00 | 0.03 | 0.00 | 91 | 1014.7 |
| 20260505064315 | 8 | 27 | 0.0 | 3.2 | 0.00 | 0.03 | 0.00 | 94 | 1014.7 |
| 20260505062815 | 7 | 42 | 0.0 | 6.4 | 0.00 | 0.03 | 0.00 | 94 | 1014.6 |
| 20260505061315 | 7 | 46 | 0.0 | 1.6 | 0.00 | 0.03 | 0.00 | 94 | 1014.6 |
| 20260505055815 | 7 | 46 | 0.0 | 1.6 | 0.00 | 0.03 | 0.00 | 94 | 1014.7 |
| 20260505054315 | 7 | 315 | 0.0 | 3.2 | 0.00 | 0.03 | 0.00 | 94 | 1014.5 |
| 20260505052815 | 7 | 29 | 0.0 | 1.6 | 0.00 | 0.05 | 0.00 | 94 | 1014.6 |
| 20260505051315 | 7 | 9 | 0.0 | 1.6 | 0.00 | 0.05 | 0.00 | 94 | 1014.7 |
| 20260505041316 | 7 | 24 | 0.0 | 3.2 | 0.00 | 0.05 | 0.00 | 95 | 1014.4 |
| 20260505035816 | 7 | 24 | 0.0 | 0.0 | 0.00 | 0.05 | 0.00 | 94 | 1014.3 |
| 20260505034316 | 7 | 24 | 0.0 | 1.6 | 0.00 | 0.05 | 0.00 | 94 | 1014.0 |
| 20260505032816 | 7 | 24 | 0.0 | 1.6 | 0.00 | 0.05 | 0.00 | 93 | 1014.3 |
| 20260505031316 | 7 | 24 | 0.0 | 0.0 | 0.00 | 0.05 | 0.00 | 93 | 1014.3 |
| 20260505025816 | 7 | 24 | 0.0 | 0.0 | 0.00 | 0.05 | 0.00 | 93 | 1014.5 |
| 20260505024316 | 7 | 24 | 0.0 | 1.6 | 0.00 | 0.05 | 0.00 | 92 | 1014.6 |
| 20260505022816 | 7 | 24 | 0.0 | 0.0 | 0.00 | 0.05 | 0.00 | 92 | 1014.8 |
| 20260505021316 | 8 | 24 | 0.0 | 1.6 | 0.00 | 0.05 | 0.00 | 92 | 1014.8 |
| 20260505015816 | 8 | 24 | 0.0 | 3.2 | 0.00 | 0.05 | 0.00 | 91 | 1014.7 |
| 20260505014316 | 8 | 24 | 0.0 | 1.6 | 0.00 | 0.05 | 0.00 | 90 | 1014.9 |
| 20260505012816 | 8 | 24 | 0.0 | 1.6 | 0.00 | 0.05 | 0.00 | 90 | 1014.8 |
| 20260505011316 | 9 | 24 | 0.0 | 1.6 | 0.00 | 0.05 | 0.00 | 90 | 1014.8 |
| 20260505005816 | 9 | 24 | 0.0 | 1.6 | 0.00 | 0.05 | 0.00 | 90 | 1014.9 |
| 20260505004316 | 10 | 24 | 0.0 | 4.8 | 0.00 | 0.05 | 0.00 | 89 | 1014.9 |
| 20260505002816 | 10 | 24 | 0.0 | 0.0 | 0.00 | 0.05 | 0.00 | 90 | 1014.8 |
| 20260505001316 | 10 | 24 | 3.2 | 6.4 | 0.00 | 0.05 | 0.00 | 90 | 1014.8 |
| 20260504235816 | 10 | 23 | 1.6 | 6.4 | 0.00 | 0.05 | 0.05 | 90 | 1014.9 |
| 20260504234316 | 10 | 19 | 0.0 | 3.2 | 0.00 | 0.05 | 0.05 | 89 | 1015.1 |
| 20260504232816 | 10 | 43 | 1.6 | 4.8 | 0.00 | 0.05 | 0.05 | 89 | 1015.2 |
| 20260504231316 | 10 | 116 | 1.6 | 4.8 | 0.00 | 0.05 | 0.05 | 89 | 1015.0 |
| 20260504225816 | 11 | 19 | 1.6 | 6.4 | 0.00 | 0.05 | 0.05 | 89 | 1015.2 |
| 20260504224316 | 11 | 25 | 1.6 | 4.8 | 0.00 | 0.05 | 0.05 | 90 | 1015.3 |
| 20260504222816 | 11 | 28 | 1.6 | 3.2 | 0.00 | 0.05 | 0.05 | 90 | 1015.4 |
| 20260504221316 | 11 | 28 | 0.0 | 0.0 | 0.00 | 0.05 | 0.05 | 90 | 1015.4 |
| 20260504215816 | 11 | 28 | 1.6 | 6.4 | 0.00 | 0.05 | 0.05 | 89 | 1015.2 |